K9MR Weather Reports


time (UTC)temp
F
wind
direction
speed
knots
gust
knots
rain 1hr
in
rain 24hr
in
rain mn
in
humidity
%
barometer
mb
20230131225519 18 264 0.9 1.7 0.00 0.00 0.00 60 999.8
20230131224519 19 186 0.9 1.7 0.00 0.00 0.00 59 999.8
20230131223520 19 190 0.9 1.7 0.00 0.00 0.00 59 999.8
20230131222520 20 199 0.9 2.6 0.00 0.00 0.00 56 999.7
20230131221520 20 155 0.9 1.7 0.00 0.00 0.00 56 999.6
20230131220520 20 75 0.9 1.7 0.00 0.00 0.00 57 999.4
20230131215520 20 151 0.9 1.7 0.00 0.00 0.00 56 999.4
20230131214517 20 101 1.7 3.5 0.00 0.00 0.00 56 999.5
20230131213518 20 155 0.9 2.6 0.00 0.00 0.00 55 999.5
20230131212520 20 90 1.7 5.2 0.00 0.00 0.00 55 999.4
20230131211521 21 75 2.6 4.3 0.00 0.00 0.00 57 999.3
20230131210517 21 88 2.6 5.2 0.00 0.00 0.00 55 999.3
20230131205518 21 114 0.9 3.5 0.00 0.00 0.00 56 999.2
20230131204518 21 103 1.7 5.2 0.00 0.00 0.00 56 999.1
20230131203519 21 130 1.7 4.3 0.00 0.00 0.00 56 999.1
20230131202518 21 139 0.9 4.3 0.00 0.00 0.00 58 999.2
20230131201518 21 132 0.9 3.5 0.00 0.00 0.00 57 999.4
20230131200519 21 94 1.7 5.2 0.00 0.00 0.00 56 999.5
20230131195519 21 94 1.7 4.3 0.00 0.00 0.00 56 999.6
20230131194519 22 99 2.6 5.2 0.00 0.00 0.00 55 999.6
20230131193519 22 197 2.6 7.8 0.00 0.00 0.00 55 999.5
20230131192519 22 195 2.6 7.0 0.00 0.00 0.00 54 999.4
20230131191517 22 173 1.7 7.0 0.00 0.00 0.00 53 999.2
20230131190517 23 105 2.6 8.7 0.00 0.00 0.00 54 999.1
20230131185520 23 82 1.7 6.1 0.00 0.00 0.00 56 999.2
20230131184520 23 78 3.5 6.1 0.00 0.00 0.00 56 999.2
20230131183520 23 70 2.6 7.0 0.00 0.00 0.00 56 999.1
20230131182520 24 100 1.7 4.3 0.00 0.00 0.00 57 999.0
20230131181517 25 94 2.6 6.1 0.00 0.00 0.00 54 999.0
20230131180517 24 74 2.6 7.8 0.00 0.00 0.00 54 999.1
20230131175518 24 100 2.6 6.1 0.00 0.00 0.00 55 999.2
20230131174521 24 81 3.5 7.8 0.00 0.00 0.00 56 999.2
20230131173521 24 83 2.6 5.2 0.00 0.00 0.00 56 999.2
20230131172518 24 84 3.5 7.0 0.00 0.00 0.00 55 999.2
20230131171518 25 76 2.6 6.1 0.00 0.00 0.00 54 999.1
20230131170519 26 236 1.7 5.2 0.00 0.00 0.00 54 999.2
20230131165519 24 119 2.6 7.0 0.00 0.00 0.00 56 999.2
20230131164519 24 167 2.6 9.6 0.00 0.00 0.00 57 999.3
20230131163519 25 138 1.7 8.7 0.00 0.00 0.00 59 999.5
20230131162519 26 127 1.7 5.2 0.00 0.00 0.00 57 999.6
20230131161519 27 203 1.7 5.2 0.00 0.00 0.00 57 999.7
20230131160520 28 104 3.5 6.1 0.00 0.00 0.00 56 999.6
20230131155520 28 97 2.6 7.0 0.00 0.00 0.00 55 999.7
20230131154520 28 86 2.6 7.0 0.00 0.00 0.00 56 999.7
20230131153520 28 82 4.3 7.8 0.00 0.00 0.00 56 999.7
20230131152517 29 192 2.6 6.1 0.00 0.00 0.00 58 999.6
20230131151517 29 93 2.6 7.8 0.00 0.00 0.00 59 999.5
20230131150518 29 179 2.6 7.8 0.00 0.00 0.00 61 999.3
20230131145518 28 124 2.6 7.8 0.00 0.00 0.00 64 999.1
20230131144521 27 102 2.6 6.1 0.00 0.00 0.00 68 998.8
20230131143518 27 114 2.6 6.1 0.00 0.00 0.00 69 998.6
20230131142518 26 84 2.6 6.1 0.00 0.00 0.00 73 998.4
20230131141519 26 99 1.7 4.3 0.00 0.00 0.00 76 998.4
20230131140518 26 160 0.9 3.5 0.00 0.00 0.00 82 998.3
20230131135519 26 82 1.7 3.5 0.00 0.00 0.00 78 998.1
20230131134519 26 108 1.7 4.3 0.00 0.00 0.00 77 997.8
20230131133519 26 148 2.6 5.2 0.00 0.00 0.00 80 997.7
20230131132519 26 211 0.9 4.3 0.00 0.00 0.00 81 997.6
20230131131519 26 146 0.9 2.6 0.00 0.00 0.00 83 997.5
20230131130520 25 184 1.7 5.2 0.00 0.00 0.00 84 997.4
20230131125520 25 211 0.9 4.3 0.00 0.00 0.00 84 997.2
20230131124520 25 128 0.9 3.5 0.00 0.00 0.00 84 996.9
20230131123520 24 92 0.9 3.5 0.00 0.00 0.00 87 996.7
20230131122517 24 268 0.9 3.5 0.00 0.00 0.00 90 996.3
20230131121517 24 218 0.0 1.7 0.00 0.00 0.00 92 996.1
20230131120521 25 223 0.0 0.9 0.00 0.00 0.00 92 995.8
20230131115521 25 320 0.0 0.9 0.00 0.00 0.00 93 995.7
20230131114520 25 0.0 0.0 0.00 0.00 0.00 92 995.6
20230131113518 25 204 0.9 1.7 0.00 0.00 0.00 92 995.5
20230131112518 25 211 0.0 1.7 0.00 0.00 0.00 92 995.5
20230131111518 25 324 0.0 1.7 0.00 0.00 0.00 92 995.5
20230131110518 25 230 0.0 0.9 0.00 0.00 0.00 91 995.4
20230131105519 25 15 0.0 0.9 0.00 0.00 0.00 92 995.2
20230131104519 25 314 0.0 0.9 0.00 0.00 0.00 91 995.3
20230131103519 25 0.0 0.0 0.00 0.00 0.00 91 995.3
20230131102519 25 0.0 0.0 0.00 0.00 0.00 90 995.3
20230131101519 25 0.0 0.0 0.00 0.00 0.00 89 995.3
20230131100519 25 0.0 0.0 0.00 0.00 0.00 90 995.2
20230131095519 25 14 0.0 0.9 0.00 0.00 0.00 90 995.3
20230131094519 25 305 0.0 1.7 0.00 0.00 0.00 90 995.2
20230131093517 25 344 0.0 0.9 0.00 0.00 0.00 89 995.0
20230131092517 25 0.0 0.0 0.00 0.00 0.00 90 994.8
20230131091520 25 0.0 0.0 0.00 0.00 0.00 90 995.0
20230131090520 25 49 0.0 0.9 0.00 0.00 0.00 89 995.2
20230131085520 25 0.0 0.0 0.00 0.00 0.00 89 995.2
20230131084518 25 91 0.0 0.9 0.00 0.00 0.00 89 995.1
20230131083517 25 174 0.9 1.7 0.00 0.00 0.00 88 995.3
20230131082518 25 85 0.9 2.6 0.00 0.00 0.00 89 995.5
20230131081518 25 127 0.9 1.7 0.00 0.00 0.00 89 995.5
20230131080519 25 69 0.9 2.6 0.00 0.00 0.00 90 995.4
20230131075521 25 62 0.9 2.6 0.00 0.00 0.00 90 995.5
20230131074518 26 75 0.9 1.7 0.00 0.00 0.00 89 995.6
20230131073519 26 54 1.7 3.5 0.00 0.00 0.00 87 995.7
20230131072519 26 90 0.9 1.7 0.00 0.00 0.00 86 995.6
20230131071519 26 85 1.7 1.7 0.00 0.00 0.00 87 995.5
20230131070519 26 86 1.7 3.5 0.00 0.00 0.00 88 995.2
20230131065519 26 126 0.9 2.6 0.00 0.00 0.00 89 995.1
20230131064519 26 112 0.0 0.9 0.00 0.00 0.00 89 995.1
20230131063517 27 193 0.0 1.7 0.00 0.00 0.00 88 995.2
20230131062520 27 285 0.9 3.5 0.00 0.00 0.00 88 995.1
20230131061520 27 112 0.9 1.7 0.00 0.00 0.00 89 994.8
20230131060520 27 79 0.0 0.9 0.00 0.00 0.00 89 994.7
20230131055517 27 75 0.0 1.7 0.00 0.00 0.00 89 994.6
20230131054517 27 199 0.0 1.7 0.00 0.00 0.00 89 994.7
20230131053517 27 77 0.9 0.9 0.00 0.00 0.00 89 994.8
20230131052518 27 103 0.9 1.7 0.00 0.00 0.00 88 994.8
20230131051518 27 74 0.0 0.9 0.00 0.00 0.00 88 994.8
20230131050518 27 68 0.9 1.7 0.00 0.00 0.00 89 994.9
20230131045518 27 143 0.0 1.7 0.00 0.00 0.00 89 994.8
20230131044518 27 145 0.0 0.9 0.00 0.00 0.00 89 995.0
20230131043519 27 122 0.9 2.6 0.00 0.00 0.00 89 995.0
20230131042519 27 97 0.0 0.9 0.00 0.00 0.00 90 995.1
20230131041519 27 100 0.9 2.6 0.00 0.00 0.00 89 995.2
20230131040516 27 87 0.9 1.7 0.00 0.00 0.00 88 995.4
20230131035519 27 198 0.9 1.7 0.00 0.00 0.00 88 995.6
20230131034519 28 82 1.7 2.6 0.00 0.00 0.00 87 995.6
20230131033520 28 38 0.9 3.5 0.00 0.00 0.00 88 995.5
20230131032520 28 98 0.9 2.6 0.00 0.00 0.00 89 995.4
20230131031517 28 140 0.9 2.6 0.00 0.00 0.00 91 995.2
20230131030517 28 119 0.9 2.6 0.00 0.00 0.00 91 995.2
20230131025517 29 74 1.7 3.5 0.00 0.00 0.00 90 995.3
20230131024518 29 79 0.9 1.7 0.00 0.00 0.00 91 995.1
20230131023518 30 72 0.9 2.6 0.00 0.00 0.00 91 995.1
20230131022518 30 61 0.9 3.5 0.00 0.00 0.00 91 995.2
20230131021518 30 105 0.9 1.7 0.00 0.00 0.00 92 994.9
20230131020518 30 108 0.9 1.7 0.00 0.00 0.00 91 995.0
20230131015518 30 206 0.0 1.7 0.00 0.00 0.00 92 994.8
20230131014518 30 107 0.0 2.6 0.00 0.00 0.00 94 993.9
20230131013519 30 64 0.0 0.9 0.00 0.00 0.00 95 993.3
20230131012519 31 89 0.9 1.7 0.00 0.00 0.00 94 993.7
20230131011519 31 171 0.0 0.9 0.00 0.00 0.00 94 993.8
20230131010519 31 0.0 0.0 0.00 0.00 0.00 94 993.7
20230131005519 31 130 0.0 1.7 0.00 0.00 0.00 93 994.1
20230131004519 31 0.0 0.0 0.00 0.00 0.00 94 994.0
20230131003519 31 175 0.0 1.7 0.00 0.00 0.00 94 993.8
20230131002519 31 135 0.9 1.7 0.00 0.00 0.00 95 993.7
20230131001520 31 119 0.9 1.7 0.00 0.00 0.00 95 993.4
20230131000521 31 90 0.0 0.9 0.00 0.00 0.00 95 993.1
20230130235520 31 86 0.0 0.9 0.00 0.00 0.00 95 993.0
20230130234520 31 73 0.0 0.9 0.00 0.00 0.00 95 993.0
20230130233520 31 0.0 0.0 0.00 0.00 0.00 95 993.1
20230130232518 31 0.0 0.0 0.00 0.00 0.00 95 993.1
20230130231518 31 0.0 0.0 0.00 0.00 0.00 95 993.2
20230130230518 32 0.0 0.0 0.00 0.00 0.00 94 993.5